ウェスト-コホウテク-池村彗星

76P/West-Kohoutek-Ikemura (2006)

English version
Home page
Total 6,336 html files since Dec. 4, 1995
Updated on September 21, 2007

---------------------------------------------------------------------

・ プロフィール

・ 写真集

・ 軌道要素

Epoch 2006 Nov. 1.0 TT = JDT 2454040.5
T 2006 Nov. 19.79618 TT                                 MPC
q   1.6034324            (2000.0)            P               Q
n   0.15219803     Peri.    0.12382     +0.10081209     -0.85765905
a   3.4742684      Node    84.10733     +0.91237161     -0.12241828
e   0.5384835      Incl.   30.45879     +0.39675555     +0.49943440
P   6.48
From 208 observations 1987 Sept. 27-2006 Aug. 30, mean residual 0".93.  Non-
   gravitational parameters A1 = +0.15 +/- 0.04, A2 = -0.0360 +/- 0.0003.

・ 星図

・ 光度変化

        m1 = 11.7 + 5 logΔ + 22 log r

---------------------------------------------------------------------

軌道要素はM.P.E.C. 2006-Q61に掲載されたものです。
星図は StellaNavigator Ver.2.0 for Windows (アストロアーツ 編著 / アスキー出版局刊) で作成したものです。
光度グラフはComet for Windowsで作成したものです。

---------------------------------------------------------------------

Copyright(C) 1995-2008 Seiichi Yoshida (comet@aerith.net). All rights reserved.